Flag for U.S.A. Weather past 2 weeks in Ocala, Florida, U.S.A.

Now
72 °F

Sunny.


Feels Like: 74 °F
Forecast: 69 / 86 °F
Wind: 6 mph from West

Location: Ocala Municipal

Current Time: Apr 19, 2015 at 7:52:50 PM

Latest Report: Apr 19, 2015 at 6:50 PM


Visibility: 10 mi

Pressure: 29.92 "Hg

Humidity: 73%

Dew point: 63 °F

Location of OcalaLocation

Historic Weather in Ocala — Graph

°F

Ocala temperature yesterday

Maximum temperature yesterday: 88 °F (at 12:50 PM)
Minimum temperature yesterday: 70 °F (at 12:55 AM)
Average temperature yesterday: 74 °F

Past Weeks' High & Low Weather Summary

 TemperatureHumidityPressure
High90 °F (Apr 19, 12:50 PM)94% (Apr 6, 7:50 AM)30.22 "Hg (Apr 6, 7:50 AM)
Low63 °F (Apr 9, 6:35 AM)16% (Apr 14, 12:50 PM)29.87 "Hg (Apr 19, 4:50 PM)
Average72 °F79%30.10 "Hg
* Reported Apr 4 5:50 PM — Apr 19 5:50 PM, Ocala, Weather by CustomWeather, © 2015

Note: Actual official high and low records may vary slightly from our data, if they occured in-between our weather recording intervals... More about our weather records

Advertising

Ocala weather history for previous 24 hours

 ConditionsComfort  
Time TempWeatherWind HumidityBarometerVisibility
5:50 PM
Sun, Apr 19
75 °FScattered clouds.12 mph65%29.92 "Hg10 mi
4:50 PM82 °FScattered clouds.14 mph58%29.87 "Hg10 mi
3:50 PM88 °FScattered clouds.16 mph55%29.89 "Hg10 mi
2:50 PM90 °FScattered clouds.14 mph41%29.91 "Hg10 mi
1:50 PM90 °FScattered clouds.18 mph43%29.91 "Hg10 mi
12:50 PM90 °FScattered clouds.16 mph46%29.91 "Hg10 mi
11:50 AM88 °FSunny.17 mph49%29.92 "Hg10 mi
10:50 AM84 °FSunny.9 mph55%29.93 "Hg10 mi
9:50 AM79 °FSunny.7 mph74%29.90 "Hg10 mi
8:50 AM73 °FFog.5 mph89%29.91 "Hg5 mi
7:50 AM72 °FFog.5 mph94%29.91 "Hg5 mi
6:50 AM70 °FFog.No wind88%29.95 "Hg2 mi
6:35 AM70 °FClear.No wind88%29.96 "Hg4 mi
6:15 AM70 °FClear.No wind88%29.96 "Hg3 mi
5:55 AM70 °FClear.No wind94%29.95 "Hg4 mi
5:35 AM70 °FPassing clouds.No wind88%29.95 "Hg3 mi
5:15 AM70 °FClear.No wind94%29.95 "Hg4 mi
4:55 AM70 °FClear.No wind94%29.95 "Hg5 mi
4:35 AM72 °FClear.No wind88%29.94 "Hg5 mi
4:15 AM72 °FClear.No wind88%29.94 "Hg7 mi
3:55 AM72 °FClear.No wind88%29.94 "Hg7 mi
3:35 AM72 °FClear.No wind88%29.94 "Hg7 mi
3:15 AM72 °FClear.No wind88%29.95 "Hg7 mi
2:55 AM72 °FClear.No wind88%29.95 "Hg6 mi
2:35 AM72 °FClear.No wind88%29.95 "Hg8 mi
2:15 AM72 °FPassing clouds.No wind88%29.95 "Hg9 mi
1:55 AM72 °FPassing clouds.No wind88%29.95 "Hg10 mi
1:35 AM72 °FPassing clouds.No wind88%29.96 "Hg10 mi
1:15 AM72 °FPassing clouds.No wind88%29.96 "Hg10 mi
12:55 AM72 °FPassing clouds.No wind88%29.97 "Hg9 mi
12:35 AM72 °FPassing clouds.No wind88%29.97 "Hg10 mi
12:15 AM72 °FClear.No wind88%29.98 "Hg10 mi
11:55 PM
Sat, Apr 18
72 °FClear.No wind88%29.98 "Hg10 mi
11:35 PM73 °FClear.No wind83%29.98 "Hg10 mi
11:15 PM73 °FClear.No wind89%29.99 "Hg10 mi
10:55 PM73 °FClear.No wind89%29.99 "Hg10 mi
10:35 PM73 °FClear.No wind89%29.99 "Hg10 mi
10:15 PM75 °FClear.No wind83%29.99 "Hg10 mi
9:55 PM75 °FClear.No wind83%29.99 "Hg10 mi
9:35 PM75 °FClear.3 mph83%29.98 "Hg10 mi
8:55 PM75 °FSunny.No wind78%29.97 "Hg10 mi
8:35 PM77 °FSunny.3 mph74%29.96 "Hg10 mi
8:15 PM77 °FSunny.7 mph74%29.96 "Hg10 mi
7:55 PM79 °FSunny.5 mph70%29.95 "Hg10 mi
Weather by CustomWeather, © 2015

See weather overviewHow to use our weather pages